Cedar Rapids, IA

4:23 PM CST on December 03, 2016 (GMT -0600)
The Eastern Iowa Airport

Weather History for KCID - September, 2012

Change the Weather History Date:

Saturday, September 1, 2012

  Actual Average Record
Temperature  
Mean Temperature 74 °F 68 °F  
Max Temperature 80 °F 79 °F 102 °F (1913)
Min Temperature 67 °F 57 °F 39 °F (1949)
Degree Days  
Heating Degree Days 0 1  
Month to date heating degree days 0 1  
Since 1 July heating degree days 14 20  
Cooling Degree Days 9 5  
Month to date cooling degree days 9 5  
Year to date cooling degree days 983 673  
Growing Degree Days 24 (Base 50)    
Moisture  
Dew Point 60 °F    
Average Humidity 70    
Maximum Humidity 90    
Minimum Humidity 50    
Precipitation  
Precipitation 0.00 in 0.12 in 0.43 in (1959)
Month to date precipitation 0.00 0.12  
Year to date precipitation 16.04 25.42  
Sea Level Pressure  
Sea Level Pressure 29.96 in    
Wind  
Wind Speed 15 mph (NE)    
Max Wind Speed 25 mph    
Max Gust Speed 32 mph    
Visibility 10 miles    
Events      
T = Trace of Precipitation, MM = Missing Value Source: NWS Daily Summary

Daily Weather History Graph

Daily Weather History Graph

Search for Another Location

Airport or City:

Trip Planner

Search our weather history database for the weather conditions in past years. The results will help you decide how hot, cold, wet, or windy it might be!

Date:

Astronomy

Sep. 01, 2012 Rise Set
Actual Time 6:33 AM CDT 7:39 PM CDT
Civil Twilight 6:04 AM CDT 8:07 PM CDT
Nautical Twilight 5:30 AM CDT 8:42 PM CDT
Astronomical Twilight 4:54 AM CDT 9:17 PM CDT
Moon 7:53 PM CDT (9/1) 7:43 AM CDT (9/1)
Length of Visible Light 14h 03m
Length of Day
13h 06m
Full, 99% of the Moon is Illuminated
Sep 1
Full
Sep 8
Last Quarter
Sep 15
New
Sep 22
First Quarter
Sep 29
Full

Hourly Weather History & Observations

Time (CDT) Temp. Heat Index Dew Point Humidity Pressure Visibility Wind Dir Wind Speed Gust Speed Precip Events Conditions
12:52 AM 73.9 °F - 70.0 °F 87% 29.98 in 10.0 mi ENE 4.6 mph - N/A   Clear
1:52 AM 73.9 °F - 70.0 °F 87% 29.97 in 9.0 mi NE 5.8 mph - N/A   Clear
2:52 AM 73.0 °F - 70.0 °F 90% 29.97 in 9.0 mi NE 10.4 mph - N/A   Clear
3:52 AM 73.0 °F - 70.0 °F 90% 29.97 in 9.0 mi ENE 10.4 mph - N/A   Clear
4:40 AM 71.6 °F - 68.0 °F 88% 29.98 in 9.0 mi ENE 11.5 mph - N/A   Mostly Cloudy
4:52 AM 71.1 °F - 68.0 °F 90% 29.96 in 9.0 mi ENE 11.5 mph - N/A   Overcast
5:17 AM 71.6 °F - 64.4 °F 78% 29.97 in 10.0 mi ENE 13.8 mph - N/A   Scattered Clouds
5:52 AM 70.0 °F - 57.9 °F 65% 29.95 in 10.0 mi ENE 15.0 mph 20.7 mph N/A   Clear
6:52 AM 69.8 °F - 55.4 °F 60% 29.98 in 10.0 mi ENE 12.7 mph - N/A   Clear
7:52 AM 69.1 °F - 54.0 °F 58% 29.97 in 10.0 mi ENE 13.8 mph - N/A   Clear
8:52 AM 70.0 °F - 55.9 °F 61% 29.98 in 10.0 mi ENE 11.5 mph - N/A   Scattered Clouds
9:47 AM 71.6 °F - 57.2 °F 60% 30.00 in 10.0 mi NE 16.1 mph 23.0 mph N/A   Mostly Cloudy
9:52 AM 72.0 °F - 57.0 °F 59% 29.98 in 10.0 mi ENE 16.1 mph 24.2 mph N/A   Mostly Cloudy
10:52 AM 75.9 °F - 60.1 °F 58% 29.98 in 10.0 mi ENE 18.4 mph 25.3 mph N/A   Mostly Cloudy
10:59 AM 75.2 °F - 60.8 °F 61% 30.00 in 10.0 mi ENE 17.3 mph - N/A   Scattered Clouds
11:52 AM 75.9 °F - 61.0 °F 60% 29.97 in 10.0 mi ENE 20.7 mph 27.6 mph N/A   Partly Cloudy
12:19 PM 77.0 °F - 62.6 °F 61% 29.99 in 10.0 mi ENE 20.7 mph 27.6 mph N/A   Mostly Cloudy
12:49 PM 78.8 °F - 60.8 °F 54% 29.98 in 10.0 mi ENE 21.9 mph 27.6 mph N/A   Mostly Cloudy
12:52 PM 78.1 °F - 61.0 °F 56% 29.96 in 10.0 mi East 21.9 mph 27.6 mph N/A   Mostly Cloudy
1:52 PM 79.0 °F - 62.1 °F 56% 29.95 in 10.0 mi East 20.7 mph 28.8 mph N/A   Scattered Clouds
2:52 PM 80.1 °F 81.7 °F 64.0 °F 58% 29.93 in 10.0 mi ENE 13.8 mph 28.8 mph N/A   Clear
3:52 PM 77.0 °F - 60.1 °F 56% 29.93 in 10.0 mi NE 13.8 mph - N/A   Overcast
4:52 PM 77.0 °F - 57.9 °F 52% 29.93 in 10.0 mi NE 18.4 mph 26.5 mph N/A   Mostly Cloudy
5:52 PM 75.9 °F - 57.9 °F 54% 29.93 in 10.0 mi NE 16.1 mph - N/A   Scattered Clouds
6:52 PM 73.9 °F - 55.9 °F 53% 29.93 in 10.0 mi NE 16.1 mph 21.9 mph N/A   Partly Cloudy
7:52 PM 72.0 °F - 55.0 °F 55% 29.94 in 10.0 mi NE 16.1 mph 21.9 mph N/A   Clear
8:52 PM 71.1 °F - 53.1 °F 53% 29.94 in 10.0 mi NE 15.0 mph - N/A   Clear
9:52 PM 69.1 °F - 52.0 °F 54% 29.94 in 10.0 mi NE 13.8 mph - N/A   Clear
10:52 PM 69.1 °F - 53.1 °F 57% 29.94 in 10.0 mi NE 12.7 mph - N/A   Clear
11:52 PM 68.0 °F - 53.1 °F 59% 29.94 in 10.0 mi NNE 12.7 mph - N/A   Clear